Change the Weather History Date:

Monday, August 4, 2014

  Actual Average Record
Temperature  
Mean Temperature 72 °F -  
Max Temperature 84 °F 84 °F 100 °F (2010)
Min Temperature 59 °F 64 °F 59 °F (2014)
Cooling Degree Days 6    
Growing Degree Days 22 (Base 50)    
Moisture  
Dew Point 61 °F    
Average Humidity 77    
Maximum Humidity 99    
Minimum Humidity 40    
Precipitation  
Precipitation 0.00 in - - ()
Sea Level Pressure  
Sea Level Pressure 30.09 in    
Wind  
Wind Speed 1 mph (NNW)    
Max Wind Speed 5 mph    
Max Gust Speed -    
Visibility 8 miles    
Events Fog    
Averages and records for this station are not official NWS values.
T = Trace of Precipitation, MM = Missing Value Source: NWS Daily Summary

Daily Weather History Graph

Daily Weather History Graph

Search for Another Location

Airport or City:

Trip Planner

Search our weather history database for the weather conditions in past years. The results will help you decide how hot, cold, wet, or windy it might be!

Date:

Astronomy

Aug. 04, 2014 Rise Set
Actual Time 6:49 AM EDT 8:49 PM EDT
Civil Twilight 6:20 AM EDT 9:18 PM EDT
Nautical Twilight 5:45 AM EDT 9:53 PM EDT
Astronomical Twilight 5:07 AM EDT 10:31 PM EDT
Moon 3:01 PM EDT (8/4) 12:55 AM EDT (8/4)
Length of Visible Light 14h 57m
Length of Day
14h 00m
First Quarter, 57% of the Moon is Illuminated
Aug 4
First Quarter
Aug 10
Full
Aug 17
Last Quarter
Aug 25
New
Sep 2
First Quarter

Hourly Weather History & Observations

Time (EDT) Temp. Heat Index Dew Point Humidity Pressure Visibility Wind Dir Wind Speed Gust Speed Precip Events Conditions
12:58 AM 67.1 °F - 64.4 °F 91% 30.10 in 10.0 mi Calm Calm - N/A   Clear
1:58 AM 64.2 °F - 63.1 °F 96% 30.10 in 10.0 mi East 1.2 mph - N/A   Clear
2:58 AM 62.6 °F - 62.2 °F 99% 30.09 in 8.0 mi Calm Calm - N/A   Clear
3:48 AM 62.6 °F - 60.8 °F 94% 30.10 in 2.0 mi Calm Calm - N/A   Clear
3:58 AM 62.1 °F - 61.2 °F 97% 30.09 in 5.0 mi Calm Calm - N/A   Clear
4:28 AM 60.8 °F - 59.0 °F 94% 30.10 in 2.5 mi West 2.3 mph - N/A   Clear
4:38 AM 60.8 °F - 59.0 °F 94% 30.10 in 5.0 mi WNW 1.2 mph - N/A   Clear
4:58 AM 60.8 °F - 59.5 °F 96% 30.09 in 10.0 mi Calm Calm - N/A   Clear
5:48 AM 60.8 °F - 59.0 °F 94% 30.10 in 0.8 mi WNW 2.3 mph - N/A   Clear
5:53 AM 60.8 °F - 59.0 °F 94% 30.10 in 0.5 mi Calm Calm - N/A Fog Fog
5:58 AM 60.8 °F - 59.0 °F 94% 30.11 in 1.8 mi NNW 1.2 mph - N/A   Clear
6:03 AM 60.8 °F - 59.0 °F 94% 30.11 in 7.0 mi NNW 3.5 mph - N/A   Clear
6:58 AM 59.7 °F - 58.3 °F 95% 30.12 in 4.0 mi NW 2.3 mph - N/A   Clear
7:58 AM 61.3 °F - 59.5 °F 94% 30.13 in 8.0 mi Calm Calm - N/A   Clear
8:58 AM 68.9 °F - 64.9 °F 87% 30.14 in 10.0 mi NE 2.3 mph - N/A   Clear
9:58 AM 73.8 °F - 64.8 °F 73% 30.14 in 10.0 mi Calm Calm - N/A   Clear
10:58 AM 77.7 °F - 65.3 °F 65% 30.14 in 10.0 mi Variable 2.3 mph - N/A   Clear
11:58 AM 81.0 °F 82.7 °F 64.9 °F 58% 30.14 in 10.0 mi Variable 2.3 mph - N/A   Clear
12:58 PM 81.9 °F 82.8 °F 62.1 °F 51% 30.12 in 10.0 mi Variable 2.3 mph - N/A   Partly Cloudy
1:58 PM 83.1 °F 83.0 °F 59.0 °F 44% 30.12 in 10.0 mi NNE 3.5 mph - N/A   Scattered Clouds
2:58 PM 82.2 °F 82.1 °F 58.1 °F 44% 30.09 in 10.0 mi North 3.5 mph - N/A   Partly Cloudy
3:58 PM 82.9 °F 83.0 °F 59.5 °F 45% 30.07 in 10.0 mi North 3.5 mph - N/A   Mostly Cloudy
4:58 PM 84.2 °F 83.5 °F 57.2 °F 40% 30.06 in 10.0 mi WNW 4.6 mph - N/A   Clear
5:58 PM 84.2 °F 83.5 °F 57.4 °F 40% 30.05 in 10.0 mi NNW 4.6 mph - N/A   Clear
6:58 PM 83.1 °F 82.7 °F 57.6 °F 42% 30.04 in 10.0 mi NNW 3.5 mph - N/A   Clear
7:58 PM 79.2 °F - 65.1 °F 62% 30.05 in 6.0 mi Calm Calm - N/A   Haze
8:58 PM 70.3 °F - 63.0 °F 77% 30.05 in 10.0 mi NW 2.3 mph - N/A   Clear
9:58 PM 66.6 °F - 61.7 °F 84% 30.07 in 10.0 mi Calm Calm - N/A   Clear
10:58 PM 65.5 °F - 59.9 °F 82% 30.06 in 10.0 mi Calm Calm - N/A   Clear
11:58 PM 64.4 °F - 60.6 °F 88% 30.06 in 10.0 mi North 1.2 mph - N/A   Clear